Location: Bucharest
(44.4268°N, 26.1025°E)
Time: 10:20:02
(UTC+03:00)

X-37B - Pass Details

Date: 30 January 2022
Orbit: 329 x 342 km, 45.0° (Epoch: 18 May)

Event Time Altitude Azimuth Distance (km) Brightness Sun altitude
Rises 19:03:41 0° 260° (W) 2,116 6.0 -18.3°
Reaches altitude 10° 19:05:42 10° 260° (W) 1,276 4.5 -18.6°
Enters shadow 19:08:17 71° 263° (W) 360 0.5 -19.1°
